Flag for Switzerland Weather past 2 weeks in Bellinzona, Ticino, Switzerland

Now
85 °F

Warm.


Feels Like: 86 °F
Forecast: 65 / 88 °F
Wind: 7 mph from West

Location: Locarno-Magadino

Current Time: Jul 28, 2015 at 5:45:07 PM

Latest Report: Jul 28, 2015 at 4:00 PM


Visibility: N/A

Pressure: 29.67 "Hg

Humidity: 48%

Dew point: 64 °F

Location of BellinzonaLocation

Historic Weather in Bellinzona — Graph

°F

Bellinzona temperature yesterday

Maximum temperature yesterday: 86 °F (at 5:00 PM)
Minimum temperature yesterday: 66 °F (at 7:00 AM)
Average temperature yesterday: 75 °F

Past Weeks' High & Low Weather Summary

 TemperatureHumidityPressure
High94 °F (Jul 21, 5:00 PM)97% (Jul 27, 2:00 AM)30.11 "Hg (Jul 27, 2:00 AM)
Low60 °F (Jul 26, 2:00 AM)34% (Jul 13, 4:00 PM)29.61 "Hg (Jul 27, 5:00 PM)
Average78 °F65%29.90 "Hg
* Reported Jul 13 4:00 PM — Jul 28 4:00 PM, Bellinzona, Weather by CustomWeather, © 2015

Note: Actual official high and low records may vary slightly from our data, if they occured in-between our weather recording intervals... More about our weather records

Advertising

Bellinzona weather history for previous 24 hours

 ConditionsComfort  
Time TempWeatherWind HumidityBarometerVisibility
4:00 PM
Tue, Jul 28
85 °FWarm.7 mph48%29.67 "HgN/A
3:00 PM84 °FWarm.9 mph47%29.69 "HgN/A
2:00 PM82 °FWarm.8 mph45%29.70 "HgN/A
1:00 PM81 °FWarm.9 mph48%29.71 "HgN/A
12:00 PM80 °FWarm.5 mph44%29.74 "HgN/A
11:00 AM76 °FMild.2 mph49%29.75 "HgN/A
10:00 AM73 °FMild.2 mph52%29.77 "HgN/A
9:00 AM70 °FMild.1 mph55%29.78 "HgN/A
8:00 AM67 °FMild.2 mph70%29.78 "HgN/A
7:00 AM60 °FCool.3 mph87%29.78 "HgN/A
6:00 AM62 °FCool.3 mph75%29.76 "HgN/A
4:00 AM69 °FMild.3 mph56%29.74 "HgN/A
3:00 AM67 °FMild.2 mph65%29.74 "HgN/A
2:00 AM66 °FMild.1 mph72%29.74 "HgN/A
1:00 AM65 °FMild.2 mph84%29.74 "HgN/A
12:00 AM67 °FMild.1 mph83%29.73 "HgN/A
10:00 PM
Mon, Jul 27
74 °FMild.2 mph65%29.68 "HgN/A
9:00 PM77 °FWarm.5 mph60%29.65 "HgN/A
8:00 PM81 °FWarm.1 mph56%29.63 "HgN/A
7:00 PM84 °FWarm.6 mph47%29.62 "HgN/A
6:00 PM85 °FWarm.8 mph43%29.61 "HgN/A
5:00 PM86 °FWarm.7 mph44%29.61 "HgN/A
Weather by CustomWeather, © 2015

See weather overviewHow to use our weather pages